Location: Brachbach
(49.1847°N, 9.7240°E)
Time: 03:55:52
(UTC+00:00)

Cosmos 1300 Rocket - Pass Details

Date: 23 May 2024
Orbit: 597 x 624 km, 82.5° (Epoch: 13 June)

Event Time Altitude Azimuth Distance (km) Brightness Sun altitude
Rises 01:10:32 0° 351° (N) 2,876 7.9 -15.8°
Reaches altitude 10° 01:12:47 10° 352° (N) 1,963 7.0 -15.6°
Maximum altitude 01:17:07 78° 79° (E) 621 3.6 -15.3°
Enters shadow 01:20:28 17° 166° (SSE) 1,558 5.2 -15.0°
